TimeMDT,TemperatureF,Dew PointF,Humidity,Sea Level PressureIn,VisibilityMPH,Wind Direction,Wind SpeedMPH,Gust SpeedMPH,PrecipitationIn,Events,Conditions,WindDirDegrees,DateUTC
12:56 AM,28.0,26.1,92,30.17,-9999.0,Calm,Calm,-,N/A,,Unknown,0,2013-04-04 06:56:00
1:56 AM,27.0,25.0,92,30.16,-9999.0,Calm,Calm,-,N/A,,Unknown,0,2013-04-04 07:56:00
2:56 AM,26.1,24.1,92,30.15,-9999.0,Calm,Calm,-,N/A,,Unknown,0,2013-04-04 08:56:00
3:56 AM,26.1,23.0,88,30.14,-9999.0,Calm,Calm,-,N/A,,Unknown,0,2013-04-04 09:56:00
4:56 AM,25.0,21.9,88,30.14,-9999.0,Calm,Calm,-,N/A,,Unknown,0,2013-04-04 10:56:00
5:56 AM,23.0,21.0,92,30.16,-9999.0,Calm,Calm,-,N/A,,Unknown,0,2013-04-04 11:56:00
6:56 AM,24.1,21.0,88,30.17,-9999.0,Calm,Calm,-,N/A,,Unknown,0,2013-04-04 12:56:00
7:56 AM,26.1,23.0,88,30.17,-9999.0,Calm,Calm,-,N/A,,Unknown,0,2013-04-04 13:56:00
8:56 AM,34.0,30.0,85,30.13,-9999.0,Calm,Calm,-,N/A,,Unknown,0,2013-04-04 14:56:00
9:56 AM,36.0,27.0,70,30.13,-9999.0,East,4.6,-,N/A,,Unknown,100,2013-04-04 15:56:00
10:56 AM,44.1,28.9,55,30.07,-9999.0,SSE,8.1,-,N/A,,Unknown,150,2013-04-04 16:56:00
11:56 AM,46.9,28.0,48,30.07,-9999.0,Variable,4.6,-,N/A,,Unknown,0,2013-04-04 17:56:00
12:56 PM,50.0,27.0,41,30.05,-9999.0,West,8.1,16.1,N/A,,Unknown,270,2013-04-04 18:56:00
1:56 PM,48.0,26.1,42,30.04,-9999.0,Variable,6.9,-,N/A,,Unknown,0,2013-04-04 19:56:00
2:56 PM,48.9,25.0,39,30.03,-9999.0,West,10.4,23.0,N/A,,Unknown,270,2013-04-04 20:56:00
3:56 PM,48.9,25.0,39,30.01,-9999.0,Variable,6.9,-,N/A,,Unknown,0,2013-04-04 21:56:00
4:56 PM,43.0,30.9,62,30.07,-9999.0,Variable,5.8,-,N/A,,Unknown,0,2013-04-04 22:56:00
5:56 PM,39.9,32.0,73,30.06,-9999.0,Calm,Calm,-,N/A,,Unknown,0,2013-04-04 23:56:00
6:56 PM,39.0,32.0,76,30.04,-9999.0,Calm,Calm,-,N/A,,Unknown,0,2013-04-05 00:56:00
7:56 PM,36.0,30.0,79,30.04,-9999.0,Calm,Calm,-,N/A,,Unknown,0,2013-04-05 01:56:00
8:56 PM,39.9,30.0,68,29.97,-9999.0,West,8.1,-,N/A,,Unknown,260,2013-04-05 02:56:00
9:56 PM,37.0,32.0,82,29.96,-9999.0,Calm,Calm,-,N/A,,Unknown,0,2013-04-05 03:56:00
10:56 PM,39.0,33.1,79,29.91,-9999.0,Calm,Calm,-,N/A,,Unknown,0,2013-04-05 04:56:00
11:56 PM,37.9,33.1,83,29.88,-9999.0,Variable,4.6,-,N/A,,Unknown,0,2013-04-05 05:56:00